Location: Kouchibouguac National Park
(46.8081°N, 64.9088°W)
Time: 13:52:06
(UTC-03:00)

Amateur Radio Satellites - All Passes

Search period start: 30 September 2016 13:22
Search period end: 01 October 2016 13:22
Location: Kouchibouguac National Park, 46.8081°N, 64.9088°W

Satellite Date Start Highest point End Downlink Frequencies (MHz)
Time Altitude Azimuth
AISAT 30 Sep 13:29:18 13:33:43 89° 291° (WNW) 13:38:06 437.250
BUGSAT 1 30 Sep 13:36:51 13:40:11 24° 265° (W) 13:43:31 437.445
PHONESAT 2.4 30 Sep 13:37:44 13:39:58 20° 191° (S) 13:42:13 2401.200-2431.200
AIST 2 30 Sep 13:40:53 13:43:34 17° 248° (WSW) 13:46:15 435.215
JAS-2 30 Sep 13:41:28 13:47:09 29° 271° (W) 13:53:26 435.910
ITAMSAT 1 30 Sep 13:49:27 13:52:28 16° 56° (NE) 13:55:28 435.822/435.867
M-CUBED/EXP-1 PRIME 30 Sep 13:53:59 13:57:16 71° 109° (ESE) 14:00:32 437.505
DX 1 30 Sep 13:55:04 13:59:26 81° 287° (WNW) 14:03:46 434.975-435.025
Cosmos 2504 30 Sep 13:57:57 14:03:31 22° 62° (ENE) 14:09:18 435.465 / 435.565
AO-7 30 Sep 14:05:58 14:12:30 27° 49° (NE) 14:19:02 29.400- 29.500
Gurwin Techsat 1B 30 Sep 14:07:32 14:12:47 65° 72° (ENE) 14:18:04 435.225
CUBEBUG 1 30 Sep 14:10:05 14:13:50 29° 294° (WNW) 14:17:33 437.445
TISAT 1 30 Sep 14:11:55 14:15:36 30° 96° (E) 14:19:16 437.305
VELOX 1 30 Sep 14:12:59 14:17:00 35° 292° (WNW) 14:21:00 145.980
SO-50 30 Sep 14:21:24 14:24:29 17° 111° (ESE) 14:27:32 436.795
ESTCUBE 1 30 Sep 14:26:43 14:29:29 16° 300° (WNW) 14:32:15 437.505/2401.250
Oscar 19 30 Sep 14:27:05 14:32:04 45° 261° (W) 14:37:04 437.125/150
SWISSCUBE 30 Sep 14:28:38 14:30:11 11° 87° (E) 14:31:43 437.505
PCSat 30 Sep 14:31:32 14:36:19 32° 249° (WSW) 14:41:04 145.827
50 SAT 30 Sep 14:34:15 14:36:38 17° 296° (WNW) 14:39:01 437.505
SPROUT 30 Sep 14:37:30 14:41:18 32° 292° (WNW) 14:45:04 437.525
BEESAT 30 Sep 14:40:33 14:42:57 14° 89° (E) 14:45:21 436.000
AUBIESAT-1 30 Sep 14:48:48 14:51:42 29° 297° (WNW) 14:54:38 437.475
Cosmos 2491 30 Sep 14:49:49 14:58:10 50° 88° (E) 15:06:33 435.465 / 435.565
YUBILEINY 30 Sep 14:49:56 14:58:41 84° 263° (W) 15:07:22 435.215
UKube-1 30 Sep 14:57:34 15:01:07 26° 295° (WNW) 15:04:41 .
AISAT 30 Sep 15:07:52 15:09:30 12° 303° (WNW) 15:11:07 437.250
AIST 1 30 Sep 15:16:56 15:18:45 12° 64° (ENE) 15:20:33
ITAMSAT 1 30 Sep 15:26:03 15:31:13 88° 256° (WSW) 15:36:28 435.822/435.867
DX 1 30 Sep 15:33:54 15:34:53 11° 304° (NW) 15:35:52 434.975-435.025
MOZHAYETS 4 30 Sep 15:43:00 15:43:47 10° 86° (E) 15:44:33
TISAT 1 30 Sep 15:47:37 15:51:11 28° 294° (WNW) 15:54:45 437.305
Gurwin Techsat 1B 30 Sep 15:49:28 15:53:12 19° 270° (W) 15:56:57 435.225
Cosmos 2504 30 Sep 15:50:20 15:57:48 84° 263° (W) 16:05:47 435.465 / 435.565
O/OREOS (USA 219) 30 Sep 15:51:28 15:55:06 22° 51° (NE) 15:58:42 437.305
ITUPSAT 1 30 Sep 15:52:20 15:57:08 63° 102° (ESE) 16:01:54 437.325
AO-7 30 Sep 15:56:01 16:04:21 88° 248° (WSW) 16:12:43 29.400- 29.500
SO-50 30 Sep 15:59:36 16:04:25 75° 308° (NW) 16:09:13 436.795
SWISSCUBE 30 Sep 16:03:49 16:08:40 89° 111° (ESE) 16:13:28 437.505
HORYU 2 30 Sep 16:07:59 16:10:16 14° 58° (ENE) 16:12:32 437.375
BEESAT 30 Sep 16:16:30 16:21:19 77° 285° (WNW) 16:26:06 436.000
Cosmos 2491 30 Sep 16:46:56 16:55:10 43° 291° (WNW) 17:03:30 435.465 / 435.565
YUBILEINY 30 Sep 16:48:35 16:54:06 19° 285° (WNW) 16:59:38 435.215
AIST 1 30 Sep 16:52:38 16:56:55 73° 263° (W) 17:01:10
GOMX 1 30 Sep 16:57:58 17:00:28 14° 58° (ENE) 17:02:55 467.674
ITAMSAT 1 30 Sep 17:09:22 17:11:27 12° 273° (W) 17:13:33 435.822/435.867
CUBESAT XI-V 30 Sep 17:09:50 17:11:28 12° 86° (E) 17:13:04 437.345
NOAA 18 30 Sep 17:14:52 17:18:08 16° 55° (NE) 17:21:25 137.9125
MOZHAYETS 4 30 Sep 17:16:58 17:21:39 87° 104° (ESE) 17:26:18
BRITE-PL 30 Sep 17:20:17 17:25:37 43° 69° (ENE) 17:30:46 437.365/2234.400
KKS-1 30 Sep 17:21:06 17:25:30 59° 101° (E) 17:29:52 437.445
NOAA 15 30 Sep 17:21:45 17:25:59 25° 61° (ENE) 17:30:13 137.62
O/OREOS (USA 219) 30 Sep 17:30:20 17:34:49 52° 250° (WSW) 17:39:16 437.305
ITUPSAT 1 30 Sep 17:31:10 17:34:30 19° 300° (WNW) 17:37:51 437.325
HORYU 2 30 Sep 17:41:49 17:46:14 77° 256° (WSW) 17:50:40 437.375
SO-50 30 Sep 17:42:20 17:45:41 18° 329° (NNW) 17:49:00 436.795
SWISSCUBE 30 Sep 17:43:21 17:45:45 14° 303° (WNW) 17:48:10 437.505
Cosmos 2504 30 Sep 17:45:42 17:50:05 17° 283° (WNW) 17:54:39 435.465 / 435.565
STARS 30 Sep 17:46:37 17:50:56 54° 101° (E) 17:55:13 437.465
CUTE-I 30 Sep 17:47:13 17:51:51 32° 64° (ENE) 17:56:32 437.470
Cubesat XI-IV 30 Sep 17:48:01 17:52:40 32° 64° (ENE) 17:57:22 437.490
HO-68 30 Sep 17:50:59 17:54:01 13° 43° (NE) 17:57:03 435.675
AO-7 30 Sep 17:52:26 17:58:15 21° 271° (W) 18:04:06 29.400- 29.500
BEESAT 30 Sep 17:56:33 17:58:17 12° 305° (NW) 18:00:02 436.000
GOMX 1 30 Sep 18:32:33 18:37:52 83° 76° (ENE) 18:42:55 467.674
LilacSat-2 30 Sep 18:34:15 18:37:59 73° 76° (ENE) 18:41:47 437.200
DOVE 4 30 Sep 18:39:28 18:44:07 44° 71° (ENE) 18:48:30 437.250
CUSAT 1 30 Sep 18:41:08 18:47:10 36° 86° (E) 18:54:04 437.405
CUBESAT XI-V 30 Sep 18:44:46 18:49:30 86° 287° (WNW) 18:54:10 437.345
Cosmos 2499 30 Sep 18:52:06 18:58:14 26° 64° (ENE) 19:04:41 435.465 / 435.565
NOAA 18 30 Sep 18:52:35 18:58:04 90° 81° (E) 19:03:34 137.9125
MOZHAYETS 4 30 Sep 18:55:53 18:58:09 14° 302° (WNW) 19:00:23
CUTE 1.7 + AOD 2 30 Sep 18:57:00 18:59:07 14° 60° (ENE) 19:01:15 437.475
CANX-2 30 Sep 18:58:20 19:00:55 16° 61° (ENE) 19:03:30 2200.000
KKS-1 30 Sep 18:58:44 19:01:38 17° 299° (WNW) 19:04:31 437.445
BRITE-PL 30 Sep 18:59:07 19:04:09 32° 266° (W) 19:09:03 437.365/2234.400
NOAA 15 30 Sep 19:00:12 19:05:24 55° 259° (W) 19:10:39 137.62
DANDE 30 Sep 19:00:42 19:04:46 19° 77° (ENE) 19:09:26 436.750
GONETS M04 30 Sep 19:12:38 19:20:53 41° 69° (ENE) 19:29:00
STRAND 1 30 Sep 19:23:52 19:26:32 14° 88° (E) 19:29:12 437.568
STARS 30 Sep 19:23:54 19:26:54 18° 299° (WNW) 19:29:54 437.465
RS-15 30 Sep 19:26:34 19:37:02 41° 108° (ESE) 19:47:56 29.354- 29.394
CUTE-I 30 Sep 19:26:50 19:31:48 40° 262° (W) 19:36:48 437.470
Cubesat XI-IV 30 Sep 19:27:41 19:32:38 40° 262° (W) 19:37:39 437.490
CINEMA 3 30 Sep 19:29:56 19:33:58 37° 70° (ENE) 19:37:53 145.822/145.860
HO-68 30 Sep 19:33:18 19:40:11 52° 65° (ENE) 19:47:05 435.675
COMPASS 1 30 Sep 19:52:29 19:55:49 23° 65° (ENE) 19:59:11 437.405
ISS 30 Sep 20:00:51 20:03:42 29° 141° (SE) 20:06:35 145.825
AO-85 30 Sep 20:02:12 20:05:27 17° 111° (ESE) 20:08:36 145.980
FUNcube-1 30 Sep 20:09:40 20:11:12 12° 59° (ENE) 20:12:42 145.935
GOMX 1 30 Sep 20:13:39 20:16:28 14° 272° (W) 20:19:14 467.674
CUBEBUG 2 30 Sep 20:17:06 20:20:48 32° 68° (ENE) 20:24:29 437.445
DOVE 4 30 Sep 20:18:03 20:21:57 23° 266° (W) 20:25:43 437.250
CUSAT 1 30 Sep 20:22:11 20:28:50 55° 289° (WNW) 20:36:36 437.405
CUBESAT XI-V 30 Sep 20:24:09 20:26:07 13° 303° (WNW) 20:28:06 437.345
SEEDS 30 Sep 20:25:51 20:30:02 72° 74° (ENE) 20:34:17 437.485
UWE-3 30 Sep 20:28:48 20:32:21 28° 67° (ENE) 20:35:56 435.000/436.395/437.385
CUTE 1.7 + AOD 2 30 Sep 20:30:09 20:34:23 73° 258° (WSW) 20:38:41 437.475
CANX-2 30 Sep 20:32:06 20:36:18 61° 260° (W) 20:40:34 2200.000
NOAA 18 30 Sep 20:36:46 20:39:29 14° 272° (W) 20:42:12 137.9125
AAUSAT CUBESAT 2 30 Sep 20:39:31 20:43:36 55° 73° (ENE) 20:47:43 437.432
DANDE 30 Sep 20:40:35 20:46:16 82° 282° (WNW) 20:53:45 436.750
Oscar 11 30 Sep 20:43:06 20:46:43 27° 66° (ENE) 20:50:21 145.826/435.025
Cosmos 2499 30 Sep 20:44:30 20:52:03 74° 265° (W) 21:00:12 435.465 / 435.565
ZACube-1 30 Sep 20:50:59 20:54:37 31° 68° (ENE) 20:58:19 437.345
STRAND 1 30 Sep 21:01:11 21:06:22 83° 286° (WNW) 21:11:32 437.568
CINEMA 3 30 Sep 21:07:43 21:11:13 23° 266° (W) 21:14:39 145.822/145.860
SO-50 30 Sep 21:09:02 21:10:47 12° 19° (NNE) 21:12:32 436.795
GONETS M04 30 Sep 21:09:31 21:17:56 52° 271° (W) 21:26:16
HO-68 30 Sep 21:21:41 21:28:08 35° 264° (W) 21:34:37 435.675
COMPASS 1 30 Sep 21:27:19 21:31:11 36° 263° (W) 21:35:07 437.405
DELFI C3 30 Sep 21:33:12 21:36:50 34° 69° (ENE) 21:40:30 145.870
ISS 30 Sep 21:36:49 21:40:02 58° 339° (NNW) 21:43:18 145.825
RS-15 30 Sep 21:37:02 21:48:48 71° 313° (NW) 22:01:10 29.354- 29.394
AO-85 30 Sep 21:40:17 21:45:26 80° 307° (NW) 21:50:15 145.980
FUNcube-1 30 Sep 21:42:41 21:46:48 81° 255° (WSW) 21:51:00 145.935
CUBEBUG 2 30 Sep 21:54:01 21:57:28 25° 266° (W) 22:00:56 437.445
PRISM 30 Sep 21:58:22 22:02:18 40° 99° (E) 22:06:10 437.425
SEEDS 30 Sep 22:04:37 22:06:14 12° 272° (W) 22:07:54 437.485
UWE-3 30 Sep 22:05:12 22:08:48 28° 265° (W) 22:12:24 435.000/436.395/437.385
CUSAT 1 30 Sep 22:09:12 22:12:55 14° 312° (NW) 22:16:50 437.405
AAUSAT CUBESAT 2 30 Sep 22:16:58 22:19:25 15° 270° (W) 22:21:55 437.432
ESTCUBE 1 30 Sep 22:17:19 22:19:04 12° 57° (ENE) 22:20:51 437.505/2401.250
Oscar 11 30 Sep 22:18:49 22:22:44 33° 264° (W) 22:26:41 145.826/435.025
HUMSAT D 30 Sep 22:18:59 22:22:58 54° 73° (ENE) 22:27:01 437.325/437.525
ANTELSAT 30 Sep 22:22:49 22:24:39 12° 88° (E) 22:26:29 437.575/2403.000
DANDE 30 Sep 22:26:18 22:30:36 19° 308° (NW) 22:35:33 436.750
ZACube-1 30 Sep 22:27:28 22:30:57 26° 266° (W) 22:34:27 437.345
Cosmos 2499 30 Sep 22:40:03 22:43:56 15° 284° (WNW) 22:47:57 435.465 / 435.565
TIGRISAT 30 Sep 22:41:25 22:44:28 18° 92° (E) 22:47:33 435.000
STRAND 1 30 Sep 22:42:10 22:44:46 14° 305° (NW) 22:47:22 437.568
SO-50 30 Sep 22:48:21 22:52:38 36° 42° (NE) 22:56:49 436.795
AISAT 30 Sep 22:55:04 22:57:35 15° 59° (ENE) 23:00:05 437.250
DELFI C3 30 Sep 23:08:34 23:11:45 22° 267° (W) 23:14:58 145.870
M-CUBED/EXP-1 PRIME 30 Sep 23:09:54 23:12:21 16° 59° (ENE) 23:14:43 437.505
ISS 30 Sep 23:13:54 23:16:55 33° 360° (N) 23:19:57 145.825
DX 1 30 Sep 23:19:03 23:21:42 16° 60° (ENE) 23:24:20 434.975-435.025
UNISAT 6 30 Sep 23:22:13 23:26:31 48° 99° (E) 23:30:54 437.425
AO-85 30 Sep 23:23:02 23:26:35 19° 327° (NNW) 23:29:57 145.980
CUBEBUG 1 30 Sep 23:32:10 23:36:13 37° 68° (ENE) 23:40:17 437.445
PRISM 30 Sep 23:34:14 23:37:21 21° 297° (WNW) 23:40:27 437.425
VELOX 1 30 Sep 23:36:34 23:40:33 33° 67° (ENE) 23:44:34 145.980
50 SAT 30 Sep 23:39:17 23:42:27 28° 68° (ENE) 23:45:38 437.505
BEESAT 3 30 Sep 23:49:01 23:49:51 11° 109° (ESE) 23:50:41 437.485
ESTCUBE 1 30 Sep 23:50:36 23:55:10 86° 71° (ENE) 23:59:44 437.505/2401.250
DUCHIFAT 1 30 Sep 23:52:22 23:54:01 12° 89° (E) 23:55:39 145.980
RS-15 30 Sep 23:53:02 00:03:54 37° 344° (NNW) 00:15:05 29.354- 29.394
HUMSAT D 30 Sep 23:56:36 23:58:57 15° 270° (W) 00:01:20 437.325/437.525
QB50P1 30 Sep 23:57:21 23:59:58 16° 91° (E) 00:02:33 145.935-145.965
ANTELSAT 30 Sep 23:57:26 00:01:52 77° 285° (WNW) 00:06:23 437.575/2403.000
SPROUT 30 Sep 23:57:53 00:01:35 30° 67° (ENE) 00:05:18 437.525
AUBIESAT-1 01 Oct 00:02:33 00:06:16 45° 66° (ENE) 00:09:45 437.475
POPSAT HIP 1 01 Oct 00:10:43 00:13:57 21° 93° (E) 00:17:12 437.405
TIGRISAT 01 Oct 00:17:09 00:21:26 52° 288° (WNW) 00:25:49 435.000
UKube-1 01 Oct 00:18:14 00:22:20 43° 69° (ENE) 00:26:27 .
NANOSAT C BR1 01 Oct 00:24:25 00:28:03 28° 95° (E) 00:31:41 145.865
SO-50 01 Oct 00:28:55 00:33:06 36° 242° (WSW) 00:37:11 436.795
AISAT 01 Oct 00:29:05 00:33:31 72° 257° (WSW) 00:37:58 437.250
M-CUBED/EXP-1 PRIME 01 Oct 00:42:44 00:46:38 50° 254° (WSW) 00:50:15 437.505
JAS-2 01 Oct 00:46:07 00:53:44 49° 97° (E) 01:00:54 435.910
BEESAT 2 01 Oct 00:48:47 00:51:55 23° 115° (ESE) 00:55:04 435.950
ISS 01 Oct 00:50:33 00:53:48 57° 20° (NNE) 00:57:03 145.825
QB50P2 01 Oct 00:50:42 00:54:53 60° 101° (E) 00:59:04 145.880/145.840
POLYITAN 1 01 Oct 00:52:52 00:57:03 60° 101° (E) 01:01:14 437.675
DX 1 01 Oct 00:53:03 00:57:24 65° 258° (WSW) 01:01:46 434.975-435.025
Cosmos 2491 01 Oct 00:56:25 01:03:57 30° 63° (ENE) 01:11:25 435.465 / 435.565
UNISAT 6 01 Oct 00:59:40 01:02:57 21° 296° (WNW) 01:06:17 437.425
TISAT 1 01 Oct 01:06:09 01:09:53 33° 68° (ENE) 01:13:39 437.305
CUBEBUG 1 01 Oct 01:08:59 01:12:36 24° 266° (W) 01:16:13 437.445
50 SAT 01 Oct 01:13:02 01:15:57 22° 266° (W) 01:18:53 437.505
VELOX 1 01 Oct 01:13:12 01:17:02 28° 265° (W) 01:20:53 145.980
BUGSAT 1 01 Oct 01:14:48 01:18:32 36° 98° (E) 01:22:16 437.445
BEESAT 3 01 Oct 01:22:57 01:26:51 85° 307° (NW) 01:30:50 437.485
DUCHIFAT 1 01 Oct 01:26:00 01:30:11 71° 287° (WNW) 01:34:21 145.980
ITUPSAT 1 01 Oct 01:26:42 01:29:20 15° 57° (ENE) 01:31:59 437.325
ESTCUBE 1 01 Oct 01:31:17 01:32:36 11° 273° (W) 01:33:55 437.505/2401.250
QB50P1 01 Oct 01:31:57 01:36:03 53° 288° (WNW) 01:40:10 145.935-145.965
SPROUT 01 Oct 01:33:47 01:37:29 29° 264° (W) 01:41:13 437.525
SWISSCUBE 01 Oct 01:36:57 01:40:22 20° 61° (ENE) 01:43:50 437.505
ANTELSAT 01 Oct 01:37:03 01:37:50 10° 303° (WNW) 01:38:38 437.575/2403.000
AUBIESAT-1 01 Oct 01:38:25 01:40:53 16° 261° (W) 01:43:16 437.475
POPSAT HIP 1 01 Oct 01:45:57 01:49:53 39° 290° (WNW) 01:53:50 437.405
BEESAT 01 Oct 01:49:11 01:52:54 23° 62° (ENE) 01:56:38 436.000
UKube-1 01 Oct 01:55:20 01:58:34 20° 267° (W) 02:01:49 .
NANOSAT C BR1 01 Oct 02:00:05 02:03:46 30° 293° (WNW) 02:07:26 145.865
YUBILEINY 01 Oct 02:00:14 02:06:46 24° 78° (ENE) 02:13:17 435.215
RS-15 01 Oct 02:09:36 02:20:45 37° 18° (NNE) 02:31:55 29.354- 29.394
Gurwin Techsat 1B 01 Oct 02:21:34 02:25:28 20° 91° (E) 02:29:20 435.225
BEESAT 2 01 Oct 02:25:44 02:29:31 42° 314° (NW) 02:33:20 435.950
ISS 01 Oct 02:27:14 02:30:10 30° 218° (SW) 02:33:05 145.825
QB50P2 01 Oct 02:27:41 02:30:15 16° 299° (WNW) 02:32:49 145.880/145.840
POLYITAN 1 01 Oct 02:29:51 02:32:25 16° 299° (WNW) 02:35:00 437.675
JAS-2 01 Oct 02:31:16 02:38:36 44° 297° (WNW) 02:45:38 435.910
Oscar 19 01 Oct 02:35:24 02:40:26 51° 100° (E) 02:45:25 437.125/150
TISAT 1 01 Oct 02:42:06 02:45:34 25° 265° (W) 02:49:04 437.305
Cosmos 2504 01 Oct 02:44:10 02:47:25 14° 75° (ENE) 02:50:38 435.465 / 435.565
MOZHAYETS 4 01 Oct 02:46:41 02:49:22 16° 59° (ENE) 02:52:04
KKS-1 01 Oct 02:49:13 02:50:16 11° 56° (NE) 02:51:18 437.445
BUGSAT 1 01 Oct 02:50:37 02:53:44 22° 295° (WNW) 02:56:51 437.445
Cosmos 2491 01 Oct 02:52:50 03:01:39 73° 266° (W) 03:10:24 435.465 / 435.565
ITUPSAT 1 01 Oct 03:01:45 03:06:31 83° 256° (WSW) 03:11:21 437.325
BEESAT 3 01 Oct 03:02:42 03:05:07 16° 327° (NNW) 03:07:33 437.485
SWISSCUBE 01 Oct 03:13:05 03:17:45 58° 259° (W) 03:22:30 437.505
BEESAT 01 Oct 03:25:48 03:30:23 48° 260° (W) 03:35:02 436.000
PCSat 01 Oct 03:33:40 03:37:41 21° 107° (ESE) 03:41:42 145.827
ITAMSAT 1 01 Oct 03:36:21 03:40:44 26° 94° (E) 03:45:05 435.822/435.867
AIST 2 01 Oct 03:39:25 03:43:22 49° 121° (ESE) 03:47:23 435.215
YUBILEINY 01 Oct 03:53:45 04:02:33 81° 279° (W) 04:11:21 435.215
AO-7 01 Oct 03:55:04 04:01:43 26° 92° (E) 04:08:19 29.400- 29.500
Gurwin Techsat 1B 01 Oct 04:00:35 04:05:50 61° 289° (WNW) 04:11:04 435.225
BEESAT 2 01 Oct 04:07:32 04:08:22 11° 335° (NNW) 04:09:13 435.950
CUBESAT XI-V 01 Oct 04:15:15 04:18:21 18° 60° (ENE) 04:21:27 437.345
Oscar 19 01 Oct 04:15:19 04:19:27 25° 298° (WNW) 04:23:33 437.125/150
JAS-2 01 Oct 04:19:01 04:21:38 12° 318° (NW) 04:24:15 435.910
MOZHAYETS 4 01 Oct 04:21:24 04:25:58 73° 258° (WSW) 04:30:36
KKS-1 01 Oct 04:21:37 04:26:03 78° 75° (ENE) 04:30:31 437.445
RS-15 01 Oct 04:23:20 04:35:47 73° 48° (NE) 04:48:01 29.354- 29.394
AO-85 01 Oct 04:29:41 04:33:29 29° 41° (NE) 04:37:02 145.980
Cosmos 2504 01 Oct 04:32:12 04:39:29 76° 96° (E) 04:46:38 435.465 / 435.565
ITUPSAT 1 01 Oct 04:44:38 04:45:07 10° 274° (W) 04:45:36 437.325
STARS 01 Oct 04:45:43 04:50:04 69° 73° (ENE) 04:54:26 437.465
Cosmos 2491 01 Oct 04:52:06 04:56:49 16° 288° (WNW) 05:01:32 435.465 / 435.565
CUSAT 1 01 Oct 05:12:11 05:19:04 33° 63° (ENE) 05:24:58 437.405
PCSat 01 Oct 05:15:11 05:20:34 66° 306° (NW) 05:26:00 145.827
ITAMSAT 1 01 Oct 05:15:25 05:20:24 46° 292° (WNW) 05:25:23 435.822/435.867
AIST 2 01 Oct 05:18:39 05:22:05 25° 321° (NW) 05:25:34 435.215
AIST 1 01 Oct 05:24:26 05:28:44 55° 95° (E) 05:33:01
HORYU 2 01 Oct 05:30:49 05:33:39 16° 91° (E) 05:36:27 437.375
DANDE 01 Oct 05:33:22 05:40:14 27° 59° (ENE) 05:46:47 436.750
Gurwin Techsat 1B 01 Oct 05:43:27 05:44:44 11° 309° (NW) 05:46:04 435.225
AO-7 01 Oct 05:47:01 05:55:20 78° 292° (WNW) 06:03:36 29.400- 29.500
CUBESAT XI-V 01 Oct 05:50:33 05:55:14 65° 259° (WSW) 05:59:57 437.345
YUBILEINY 01 Oct 05:54:45 06:00:54 21° 303° (WNW) 06:07:05 435.215
KKS-1 01 Oct 06:01:29 06:03:11 12° 272° (W) 06:04:53 437.445
O/OREOS (USA 219) 01 Oct 06:08:58 06:10:52 12° 97° (E) 06:12:47 437.305
AO-85 01 Oct 06:10:08 06:13:58 36° 242° (WSW) 06:17:35 145.980
STARS 01 Oct 06:24:46 06:26:54 13° 271° (W) 06:29:01 437.465
Cosmos 2504 01 Oct 06:28:13 06:33:41 23° 298° (WNW) 06:39:09 435.465 / 435.565
GOMX 1 01 Oct 06:32:58 06:35:50 17° 90° (E) 06:38:37 467.674
RS-15 01 Oct 06:36:32 06:47:33 41° 253° (WSW) 06:58:24 29.354- 29.394
STRAND 1 01 Oct 06:41:54 06:46:12 28° 63° (ENE) 06:50:31 437.568
CUSAT 1 01 Oct 06:54:05 07:01:34 57° 267° (W) 07:07:44 437.405
BRITE-PL 01 Oct 07:00:54 07:05:43 78° 101° (E) 07:10:08 437.365/2234.400
PCSat 01 Oct 07:01:28 07:05:02 17° 328° (NNW) 07:08:37 145.827
AIST 1 01 Oct 07:03:56 07:06:43 16° 293° (WNW) 07:09:29
HORYU 2 01 Oct 07:06:10 07:10:33 58° 289° (WNW) 07:14:57 437.375
NOAA 18 01 Oct 07:11:59 07:16:45 30° 95° (E) 07:21:30 137.9125
NOAA 15 01 Oct 07:12:18 07:17:23 45° 99° (E) 07:22:26 137.62
DANDE 01 Oct 07:15:35 07:24:04 85° 261° (W) 07:31:47 436.750
Cosmos 2499 01 Oct 07:36:11 07:39:54 15° 76° (ENE) 07:43:38 435.465 / 435.565
LilacSat-2 01 Oct 07:38:44 07:42:35 75° 102° (ESE) 07:46:26 437.200
CUTE-I 01 Oct 07:40:17 07:45:38 65° 103° (ESE) 07:50:58 437.470
AO-7 01 Oct 07:40:56 07:46:54 23° 314° (NW) 07:52:52 29.400- 29.500
Cubesat XI-IV 01 Oct 07:41:19 07:46:40 66° 102° (ESE) 07:52:00 437.490
O/OREOS (USA 219) 01 Oct 07:45:01 07:49:35 80° 295° (WNW) 07:54:13 437.305
BEESAT 3 01 Oct 08:00:19 08:03:29 22° 38° (NE) 08:06:37 437.485
GOMX 1 01 Oct 08:10:04 08:14:19 48° 289° (WNW) 08:18:21 467.674
DOVE 4 01 Oct 08:12:47 08:16:59 78° 101° (E) 08:21:08 437.250
CUTE 1.7 + AOD 2 01 Oct 08:13:12 08:15:55 16° 90° (E) 08:18:37 437.475
CANX-2 01 Oct 08:14:53 08:18:01 19° 91° (E) 08:21:08 2200.000
GONETS M04 01 Oct 08:17:30 08:25:33 42° 86° (E) 08:33:38
STRAND 1 01 Oct 08:20:21 08:25:11 43° 262° (W) 08:30:05 437.568
CUSAT 1 01 Oct 08:39:58 08:41:37 11° 289° (WNW) 08:43:14 437.405
BRITE-PL 01 Oct 08:40:56 08:43:29 14° 303° (WNW) 08:45:56 437.365/2234.400
HO-68 01 Oct 08:45:10 08:51:52 41° 98° (E) 08:58:31 435.675
PRISM 01 Oct 08:50:10 08:54:08 44° 70° (ENE) 08:58:07 437.425
NOAA 18 01 Oct 08:52:23 08:57:33 44° 294° (WNW) 09:02:43 137.9125
NOAA 15 01 Oct 08:52:28 08:56:58 29° 297° (WNW) 09:01:27 137.62
CINEMA 3 01 Oct 08:57:53 09:02:02 62° 101° (E) 09:06:18 145.822/145.860
DANDE 01 Oct 08:59:52 09:05:40 21° 282° (WNW) 09:11:09 436.750
BEESAT 2 01 Oct 09:03:11 09:06:58 38° 46° (NE) 09:10:45 435.950
COMPASS 1 01 Oct 09:07:05 09:10:45 28° 95° (E) 09:14:23 437.405
LilacSat-2 01 Oct 09:15:09 09:16:20 11° 300° (WNW) 09:17:30 437.200
CUTE-I 01 Oct 09:21:15 09:25:13 21° 301° (WNW) 09:29:10 437.470
Cubesat XI-IV 01 Oct 09:22:20 09:26:16 21° 301° (WNW) 09:30:12 437.490
ANTELSAT 01 Oct 09:24:29 09:27:01 16° 61° (ENE) 09:29:33 437.575/2403.000
Cosmos 2499 01 Oct 09:24:43 09:31:49 84° 95° (E) 09:38:57 435.465 / 435.565
O/OREOS (USA 219) 01 Oct 09:27:31 09:29:48 13° 316° (NW) 09:32:07 437.305
FUNcube-1 01 Oct 09:28:29 09:31:13 16° 91° (E) 09:33:58 145.935
BEESAT 3 01 Oct 09:37:31 09:41:26 56° 238° (WSW) 09:45:19 437.485
CUBEBUG 2 01 Oct 09:40:28 09:44:40 49° 100° (E) 09:48:58 437.445
SEEDS 01 Oct 09:42:18 09:46:36 86° 284° (WNW) 09:50:51 437.485
TIGRISAT 01 Oct 09:43:05 09:46:20 22° 64° (ENE) 09:49:36 435.000
CUTE 1.7 + AOD 2 01 Oct 09:47:52 09:52:05 54° 288° (WNW) 09:56:16 437.475
CANX-2 01 Oct 09:49:58 09:54:06 45° 289° (WNW) 09:58:12 2200.000
UWE-3 01 Oct 09:50:44 09:54:53 43° 98° (E) 09:59:08 435.000/436.395/437.385
DOVE 4 01 Oct 09:52:29 09:54:06 12° 301° (WNW) 09:55:42 437.250
AAUSAT CUBESAT 2 01 Oct 09:54:03 09:58:17 70° 103° (ESE) 10:02:26 437.432
Oscar 11 01 Oct 10:02:40 10:06:41 35° 96° (E) 10:10:42 145.826/435.025
ZACube-1 01 Oct 10:11:35 10:15:48 45° 99° (E) 10:20:05 437.345
GONETS M04 01 Oct 10:13:41 10:22:13 51° 287° (WNW) 10:30:49
AIST 2 01 Oct 10:20:18 10:23:00 16° 32° (NNE) 10:25:42 435.215
UNISAT 6 01 Oct 10:23:50 10:28:00 58° 73° (ENE) 10:32:12 437.425
PRISM 01 Oct 10:26:38 10:29:38 19° 267° (W) 10:32:40 437.425
HO-68 01 Oct 10:32:55 10:39:40 46° 297° (WNW) 10:46:22 435.675
PCSat 01 Oct 10:34:58 10:37:03 12° 22° (NNE) 10:39:08 145.827
CINEMA 3 01 Oct 10:36:22 10:38:46 15° 298° (WNW) 10:41:11 145.822/145.860
BEESAT 2 01 Oct 10:41:17 10:44:39 26° 244° (WSW) 10:48:01 435.950
DELFI C3 01 Oct 10:42:12 10:45:57 36° 97° (E) 10:49:39 145.870
COMPASS 1 01 Oct 10:42:35 10:46:18 30° 292° (WNW) 10:49:57 437.405
DUCHIFAT 1 01 Oct 10:47:02 10:49:15 14° 60° (ENE) 10:51:29 145.980
PHONESAT 2.4 01 Oct 10:50:52 10:52:57 18° 167° (SSE) 10:55:04 2401.200-2431.200
QB50P1 01 Oct 10:52:39 10:55:32 18° 63° (ENE) 10:58:25 145.935-145.965
ANTELSAT 01 Oct 10:59:04 11:03:17 61° 259° (W) 11:07:31 437.575/2403.000
JAS-2 01 Oct 11:01:16 11:07:10 31° 58° (ENE) 11:13:35 435.910
FUNcube-1 01 Oct 11:03:31 11:07:47 57° 287° (WNW) 11:12:09 145.935
POPSAT HIP 1 01 Oct 11:05:59 11:09:21 24° 65° (ENE) 11:12:42 437.405
CUBEBUG 2 01 Oct 11:17:56 11:20:59 19° 296° (WNW) 11:24:06 437.445
TIGRISAT 01 Oct 11:18:48 11:22:48 40° 262° (W) 11:26:51 435.000
NANOSAT C BR1 01 Oct 11:19:13 11:22:53 30° 67° (ENE) 11:26:33 145.865
SEEDS 01 Oct 11:20:29 11:21:35 11° 302° (WNW) 11:22:41 437.485
Cosmos 2499 01 Oct 11:20:58 11:25:56 20° 300° (WNW) 11:30:58 435.465 / 435.565
UWE-3 01 Oct 11:27:47 11:31:06 22° 295° (WNW) 11:34:30 435.000/436.395/437.385
AAUSAT CUBESAT 2 01 Oct 11:31:04 11:33:12 14° 300° (WNW) 11:35:20 437.432
HUMSAT D 01 Oct 11:34:35 11:38:52 71° 102° (ESE) 11:43:09 437.325/437.525
Oscar 11 01 Oct 11:39:04 11:42:41 26° 294° (WNW) 11:46:18 145.826/435.025
ESTCUBE 1 01 Oct 11:41:32 11:44:09 15° 89° (E) 11:46:44 437.505/2401.250
QB50P2 01 Oct 11:45:47 11:49:56 64° 73° (ENE) 11:54:07 145.880/145.840
POLYITAN 1 01 Oct 11:47:58 11:52:06 64° 74° (ENE) 11:56:16 437.675
ZACube-1 01 Oct 11:48:34 11:51:49 21° 296° (WNW) 11:55:07 437.345
AIST 2 01 Oct 11:57:55 12:02:09 81° 55° (NE) 12:06:21 435.215
UNISAT 6 01 Oct 12:02:42 12:05:08 15° 270° (W) 12:07:33 437.425
YUBILEINY 01 Oct 12:05:32 12:09:58 15° 50° (NE) 12:14:22 435.215
BUGSAT 1 01 Oct 12:07:06 12:10:53 37° 69° (ENE) 12:14:38 437.445
PCSat 01 Oct 12:17:05 12:22:06 36° 46° (NE) 12:27:06 145.827
AISAT 01 Oct 12:17:16 12:20:11 17° 91° (E) 12:23:06 437.250
DELFI C3 01 Oct 12:17:29 12:20:35 22° 295° (WNW) 12:23:39 145.870
Oscar 19 01 Oct 12:18:23 12:21:31 16° 57° (ENE) 12:24:41 437.125/150
GONETS M04 01 Oct 12:18:25 12:21:43 12° 314° (NW) 12:25:02
DUCHIFAT 1 01 Oct 12:20:18 12:24:26 67° 258° (WSW) 12:28:37 145.980
HO-68 01 Oct 12:23:32 12:25:39 11° 319° (NW) 12:27:47 435.675
PHONESAT 2.4 01 Oct 12:26:07 12:28:31 23° 183° (S) 12:30:56 2401.200-2431.200
QB50P1 01 Oct 12:26:53 12:30:58 49° 260° (W) 12:35:04 145.935-145.965
50 SAT 01 Oct 12:37:20 12:40:16 22° 94° (E) 12:43:10 437.505
DX 1 01 Oct 12:39:15 12:42:09 17° 92° (E) 12:45:01 434.975-435.025
POPSAT HIP 1 01 Oct 12:41:05 12:44:58 36° 263° (W) 12:48:52 437.405
JAS-2 01 Oct 12:44:56 12:51:37 65° 259° (W) 12:59:09 435.910
CUBEBUG 1 01 Oct 12:53:37 12:57:50 49° 99° (E) 13:02:01 437.445
NANOSAT C BR1 01 Oct 12:55:01 12:58:36 27° 265° (W) 13:02:12 145.865
VELOX 1 01 Oct 12:59:35 13:03:49 43° 99° (E) 13:07:59 145.980
AO-7 01 Oct 13:10:03 13:13:56 14° 36° (NE) 13:17:48 29.400- 29.500
HUMSAT D 01 Oct 13:11:42 13:13:58 14° 300° (WNW) 13:16:13 437.325/437.525
AUBIESAT-1 01 Oct 13:13:04 13:15:13 16° 99° (E) 13:17:24 437.475
